Weather History for KDPA - August, 2013

Change the Weather History Date:

Tuesday, August 13, 2013

  Actual Average Record
Temperature  
Mean Temperature 63 °F 72 °F  
Max Temperature 72 °F 83 °F 91 °F (2010)
Min Temperature 53 °F 62 °F 50 °F (2004)
Degree Days  
Heating Degree Days 2 0  
Month to date heating degree days 2 0  
Since 1 June heating degree days 75 38  
Since 1 July heating degree days 21 2  
Cooling Degree Days 0 8  
Month to date cooling degree days 63 104  
Year to date cooling degree days 498 606  
Since 1 June cooling degree days 421 560  
Growing Degree Days 14 (Base 50)    
Moisture  
Dew Point 53 °F    
Average Humidity 72    
Maximum Humidity 94    
Minimum Humidity 41    
Precipitation  
Precipitation 0.00 in 0.15 in 2.86 in (2002)
Month to date precipitation 0.17 2.05  
Year to date precipitation 25.31 23.08  
Sea Level Pressure  
Sea Level Pressure 30.05 in    
Wind  
Wind Speed 9 mph (NNE)    
Max Wind Speed 17 mph    
Max Gust Speed 22 mph    
Visibility 10 miles    
Events      
T = Trace of Precipitation, MM = Missing Value Source: NWS Daily Summary

Daily Weather History Graph

Daily Weather History Graph

Search for Another Location

Airport or City:

Trip Planner

Search our weather history database for the weather conditions in past years. The results will help you decide how hot, cold, wet, or windy it might be!

Date:

Astronomy

Aug. 13, 2013 Rise Set
Actual Time 5:59 AM CDT 7:55 PM CDT
Civil Twilight 5:29 AM CDT 8:25 PM CDT
Nautical Twilight 4:52 AM CDT 9:02 PM CDT
Astronomical Twilight 4:12 AM CDT 9:42 PM CDT
Moon 1:01 PM CDT (8/13) 11:22 PM CDT (8/13)
Length of Visible Light 14h 56m
Length of Day
13h 56m
Waxing Crescent, 42% of the Moon is Illuminated
Aug 13
Waxing Crescent
Aug 14
First Quarter
Aug 20
Full
Aug 28
Last Quarter
Sep 5
New

Hourly Weather History & Observations

Time (CDT) Temp. Dew Point Humidity Pressure Visibility Wind Dir Wind Speed Gust Speed Precip Events Conditions
12:52 AM 64.0 °F 61.0 °F 90% 29.94 in 10.0 mi North 6.9 mph - N/A   Clear
1:52 AM 64.9 °F 62.1 °F 90% 29.95 in 10.0 mi North 9.2 mph - N/A   Scattered Clouds
2:08 AM 64.4 °F 62.6 °F 94% 29.96 in 10.0 mi NNE 8.1 mph - N/A   Mostly Cloudy
2:32 AM 64.4 °F 60.8 °F 88% 29.97 in 10.0 mi NNE 9.2 mph - N/A   Scattered Clouds
2:39 AM 64.4 °F 60.8 °F 88% 29.97 in 10.0 mi NNE 11.5 mph - N/A   Mostly Cloudy
2:49 AM 64.4 °F 60.8 °F 88% 29.97 in 10.0 mi NE 9.2 mph - N/A   Partly Cloudy
2:52 AM 64.0 °F 60.1 °F 87% 29.96 in 10.0 mi NE 10.4 mph - N/A   Partly Cloudy
3:12 AM 62.6 °F 60.8 °F 94% 29.98 in 10.0 mi North 9.2 mph - N/A   Mostly Cloudy
3:44 AM 62.6 °F 57.2 °F 82% 29.99 in 10.0 mi NNE 9.2 mph - N/A   Partly Cloudy
3:52 AM 61.0 °F 57.0 °F 87% 29.98 in 10.0 mi NNE 5.8 mph - N/A   Partly Cloudy
4:52 AM 57.9 °F 55.0 °F 90% 29.99 in 10.0 mi North 9.2 mph - N/A   Clear
5:52 AM 57.0 °F 54.0 °F 89% 30.01 in 10.0 mi North 9.2 mph - N/A   Clear
6:52 AM 57.0 °F 53.1 °F 87% 30.05 in 10.0 mi North 8.1 mph - N/A   Partly Cloudy
7:52 AM 59.0 °F 53.1 °F 81% 30.05 in 10.0 mi North 12.7 mph - N/A   Partly Cloudy
8:52 AM 62.1 °F 53.1 °F 72% 30.06 in 10.0 mi North 15.0 mph - N/A   Clear
9:52 AM 64.0 °F 52.0 °F 65% 30.08 in 10.0 mi North 16.1 mph - N/A   Clear
10:52 AM 66.0 °F 50.0 °F 56% 30.10 in 10.0 mi North 11.5 mph - N/A   Partly Cloudy
11:52 AM 69.1 °F 48.9 °F 49% 30.11 in 10.0 mi NE 11.5 mph - N/A   Partly Cloudy
12:52 PM 69.1 °F 46.9 °F 45% 30.12 in 10.0 mi NE 10.4 mph 17.3 mph N/A   Scattered Clouds
1:52 PM 69.1 °F 46.0 °F 44% 30.11 in 10.0 mi NNE 13.8 mph 19.6 mph N/A   Scattered Clouds
2:52 PM 71.1 °F 46.0 °F 41% 30.11 in 10.0 mi North 11.5 mph - N/A   Mostly Cloudy
3:52 PM 68.0 °F 46.0 °F 45% 30.11 in 10.0 mi NNW 8.1 mph - N/A   Mostly Cloudy
4:52 PM 68.0 °F 46.9 °F 47% 30.11 in 10.0 mi NNE 10.4 mph - N/A   Mostly Cloudy
5:52 PM 70.0 °F 46.9 °F 44% 30.10 in 10.0 mi North 9.2 mph - N/A   Clear
6:52 PM 68.0 °F 46.9 °F 47% 30.09 in 10.0 mi NW 8.1 mph - N/A   Clear
7:52 PM 62.1 °F 48.0 °F 60% 30.10 in 10.0 mi North 5.8 mph - N/A   Clear
8:52 PM 61.0 °F 48.9 °F 64% 30.11 in 10.0 mi NNE 5.8 mph - N/A   Mostly Cloudy
9:52 PM 60.1 °F 50.0 °F 69% 30.14 in 10.0 mi East 4.6 mph - N/A   Clear
10:52 PM 57.0 °F 50.0 °F 77% 30.14 in 10.0 mi Calm Calm - N/A   Clear
11:52 PM 54.0 °F 50.0 °F 86% 30.16 in 10.0 mi North 3.5 mph - N/A   Clear